Location: Gand�
(15.0971°N, 12.6564°W)
Time: 15:10:59
(UTC+00:00)

GPS 2-15 Rocket1 - Pass Details

Date: 07 August 2020
Orbit: 624 x 675 km, 19.8° (Epoch: 20 September)

Event Time Altitude Azimuth Distance (km) Brightness Sun altitude
Exits shadow 05:20:46 23° 291° (WNW) 1,409 4.5 -17.6°
Maximum altitude 05:23:49 71° 11° (N) 705 3.4 -16.9°
Drops below altitude 10° 05:28:45 10° 96° (E) 2,091 6.7 -15.8°
Sets 05:31:10 0° 98° (E) 3,004 7.7 -15.3°
